4XCWC LLHA-LLHA

Flight info

Callsign 4XCWC
Flight time 0h 27m
Altitude 1000
Route CVFR
Aircraft C172/L-VD/A

Departure

Time 2026-04-14 14:01
Airport Uri Michaeli Haifa International Airport (LLHA)

Arrival

Time 2026-04-14 14:28
Airport Uri Michaeli Haifa International Airport (LLHA)
Time Latitude Longitude Altitude Speed Heading
2026-04-14 13:52 32.81155 35.04175 20 ft 0 kts 140°
2026-04-14 13:57 32.81161 35.04251 21 ft 11 kts 69°
2026-04-14 13:57 32.81234 35.04278 24 ft 22 kts 342°
2026-04-14 13:58 32.81368 35.04222 24 ft 16 kts 341°
2026-04-14 13:58 32.81425 35.04197 24 ft 10 kts 340°
2026-04-14 13:59 32.81487 35.04170 26 ft 19 kts 341°
2026-04-14 13:59 32.81569 35.04131 30 ft 7 kts 143°
2026-04-14 13:59 32.81506 35.04161 27 ft 26 kts 159°
2026-04-14 14:00 32.81155 35.04314 22 ft 78 kts 159°
2026-04-14 14:00 32.80546 35.04579 129 ft 98 kts 160°
2026-04-14 14:00 32.79881 35.04779 314 ft 102 kts 168°
2026-04-14 14:00 32.79610 35.04845 379 ft 104 kts 169°
2026-04-14 14:01 32.78918 35.05171 520 ft 109 kts 143°
2026-04-14 14:01 32.78758 35.05303 543 ft 112 kts 143°
2026-04-14 14:01 32.78185 35.05882 865 ft 96 kts 111°
2026-04-14 14:01 32.78449 35.06540 895 ft 105 kts 44°
2026-04-14 14:02 32.78955 35.07170 916 ft 103 kts 42°
2026-04-14 14:02 32.79509 35.07602 971 ft 91 kts 354°
2026-04-14 14:02 32.80049 35.07241 914 ft 92 kts 333°
2026-04-14 14:02 32.80634 35.06866 790 ft 99 kts 339°
2026-04-14 14:03 32.81256 35.06571 813 ft 90 kts 323°
2026-04-14 14:03 32.81732 35.06092 932 ft 90 kts 323°
2026-04-14 14:03 32.81958 35.05874 936 ft 88 kts 323°
2026-04-14 14:03 32.82071 35.05753 950 ft 85 kts 321°
2026-04-14 14:04 32.82194 35.05611 919 ft 87 kts 321°
2026-04-14 14:04 32.82637 35.05101 904 ft 91 kts 320°
2026-04-14 14:05 32.82985 35.04489 901 ft 91 kts 269°
2026-04-14 14:05 32.82619 35.03870 602 ft 95 kts 204°
2026-04-14 14:05 32.81994 35.03941 255 ft 90 kts 160°
2026-04-14 14:05 32.81441 35.04188 25 ft 80 kts 158°
2026-04-14 14:06 32.80911 35.04420 23 ft 93 kts 161°
2026-04-14 14:06 32.80313 35.04700 286 ft 88 kts 163°
2026-04-14 14:06 32.79675 35.04818 424 ft 96 kts 174°
2026-04-14 14:06 32.79060 35.05096 629 ft 97 kts 148°
2026-04-14 14:07 32.79037 35.05112 635 ft 98 kts 148°
2026-04-14 14:07 32.78822 35.05269 655 ft 105 kts 146°
2026-04-14 14:08 32.78189 35.05800 784 ft 111 kts 124°
2026-04-14 14:08 32.78427 35.06471 905 ft 103 kts 42°
2026-04-14 14:08 32.78933 35.07044 894 ft 99 kts 40°
2026-04-14 14:08 32.79285 35.07385 931 ft 94 kts 28°
2026-04-14 14:09 32.79700 35.07325 947 ft 94 kts 322°
2026-04-14 14:09 32.80288 35.06866 937 ft 100 kts 333°
2026-04-14 14:09 32.80735 35.06552 904 ft 96 kts 332°
2026-04-14 14:11 32.80813 35.06494 888 ft 97 kts 332°
2026-04-14 14:11 32.81401 35.06108 802 ft 98 kts 336°
2026-04-14 14:12 32.81974 35.05762 790 ft 89 kts 330°
2026-04-14 14:12 32.82445 35.05319 706 ft 82 kts 323°
2026-04-14 14:12 32.82877 35.04844 716 ft 84 kts 320°
2026-04-14 14:12 32.83031 35.04222 646 ft 92 kts 252°
2026-04-14 14:13 32.82516 35.03832 392 ft 87 kts 187°
2026-04-14 14:13 32.81918 35.03970 198 ft 85 kts 158°
2026-04-14 14:13 32.81384 35.04211 24 ft 74 kts 158°
2026-04-14 14:13 32.80846 35.04444 63 ft 92 kts 161°
2026-04-14 14:14 32.80234 35.04667 285 ft 94 kts 173°
2026-04-14 14:14 32.79548 35.04765 431 ft 102 kts 163°
2026-04-14 14:14 32.78926 35.05207 613 ft 104 kts 143°
2026-04-14 14:14 32.78355 35.05722 841 ft 104 kts 134°
2026-04-14 14:15 32.78346 35.06342 1056 ft 88 kts 46°
2026-04-14 14:15 32.78710 35.06879 920 ft 92 kts 47°
2026-04-14 14:15 32.79205 35.07450 936 ft 98 kts 28°
2026-04-14 14:15 32.79704 35.07212 849 ft 89 kts 322°
2026-04-14 14:16 32.80199 35.06801 859 ft 87 kts 333°
2026-04-14 14:16 32.80383 35.06677 852 ft 88 kts 333°
2026-04-14 14:18 32.80871 35.06366 769 ft 93 kts 334°
2026-04-14 14:18 32.81448 35.06014 720 ft 92 kts 336°
2026-04-14 14:19 32.82004 35.05681 731 ft 85 kts 334°
2026-04-14 14:19 32.82460 35.05305 880 ft 80 kts 324°
2026-04-14 14:19 32.82902 35.04840 794 ft 90 kts 322°
2026-04-14 14:19 32.83342 35.04336 838 ft 90 kts 298°
2026-04-14 14:20 32.83100 35.03661 643 ft 103 kts 212°
2026-04-14 14:20 32.82438 35.03707 363 ft 88 kts 156°
2026-04-14 14:20 32.81899 35.03966 151 ft 80 kts 156°
2026-04-14 14:20 32.81399 35.04202 25 ft 76 kts 156°
2026-04-14 14:21 32.80892 35.04433 25 ft 93 kts 162°
2026-04-14 14:21 32.80760 35.04484 40 ft 95 kts 161°
2026-04-14 14:22 32.80682 35.04517 77 ft 95 kts 160°
2026-04-14 14:22 32.80022 35.04747 264 ft 100 kts 172°
2026-04-14 14:22 32.79360 35.04902 523 ft 98 kts 165°
2026-04-14 14:22 32.78809 35.05288 797 ft 92 kts 140°
2026-04-14 14:23 32.78352 35.05753 869 ft 76 kts 116°
2026-04-14 14:23 32.78493 35.06375 880 ft 93 kts 53°
2026-04-14 14:23 32.78922 35.06985 935 ft 101 kts 42°
2026-04-14 14:23 32.79194 35.07269 1041 ft 100 kts 34°
2026-04-14 14:25 32.79633 35.07357 1110 ft 95 kts 338°
2026-04-14 14:25 32.80216 35.06953 999 ft 98 kts 334°
2026-04-14 14:25 32.80798 35.06560 954 ft 95 kts 333°
2026-04-14 14:25 32.80986 35.06429 940 ft 95 kts 331°
2026-04-14 14:26 32.81096 35.06347 931 ft 96 kts 332°
2026-04-14 14:26 32.81624 35.05931 957 ft 89 kts 329°
2026-04-14 14:26 32.82118 35.05495 918 ft 90 kts 323°
2026-04-14 14:26 32.82621 35.05022 824 ft 96 kts 327°
2026-04-14 14:27 32.83158 35.04528 688 ft 91 kts 312°
2026-04-14 14:27 32.83189 35.03834 527 ft 93 kts 248°
2026-04-14 14:27 32.82662 35.03571 337 ft 86 kts 160°
2026-04-14 14:27 32.82111 35.03874 214 ft 82 kts 152°
2026-04-14 14:28 32.81598 35.04115 52 ft 80 kts 158°
2026-04-14 14:28 32.81142 35.04320 22 ft 57 kts 158°
2026-04-14 14:28 32.80912 35.04397 23 ft 9 kts 269°
2026-04-14 14:28 32.80911 35.04330 23 ft 6 kts 248°
2026-04-14 14:29 32.80895 35.04281 22 ft 7 kts 220°
2026-04-14 14:29 32.80882 35.04288 22 ft 0 kts 82°